K5NCO Weather Reports


Display with metric or nautical units.
time (UTC)temp
F
wind
direction
speed
MPH
gust
MPH
rain 1hr
in
rain 24hr
in
rain mn
in
humidity
%
barometer
mb
20260905032424 83 143 0.0 0.0 0.00 0.06 0.06 73 1015.7
20260905031919 83 125 1.0 2.0 0.00 0.06 0.06 73 1015.8
20260905031415 83 131 2.0 2.0 0.00 0.06 0.06 73 1015.8
20260905030910 83 130 2.0 3.0 0.00 0.06 0.06 73 1015.5
20260905030405 84 124 1.0 2.0 0.00 0.06 0.06 73 1015.6
20260905025904 84 83 4.0 4.0 0.00 0.06 0.06 73 1015.6
20260905025354 84 99 4.0 4.0 0.00 0.06 0.06 73 1015.4
20260905024850 84 119 1.0 1.0 0.00 0.06 0.06 73 1015.2
20260905024344 84 114 5.0 6.0 0.00 0.06 0.06 72 1015.5
20260905023840 84 110 4.0 4.0 0.00 0.06 0.06 72 1015.3
20260905023335 84 126 3.0 3.0 0.00 0.06 0.06 72 1015.4
20260905022833 84 127 2.0 2.0 0.00 0.06 0.06 72 1015.2
20260905022329 84 87 4.0 4.0 0.00 0.06 0.06 72 1015.0
20260905021825 85 92 2.0 3.0 0.00 0.06 0.06 71 1015.2
20260905021320 84 115 4.0 4.0 0.00 0.06 0.06 72 1015.0
20260905020820 85 113 1.0 2.0 0.00 0.06 0.06 72 1015.1
20260905020315 85 190 4.0 4.0 0.00 0.06 0.06 71 1014.9
20260905015813 85 97 1.0 2.0 0.00 0.06 0.06 71 1014.9
20260905015308 85 171 5.0 6.0 0.00 0.06 0.06 71 1015.0
20260905014807 85 96 4.0 6.0 0.00 0.06 0.06 71 1015.0
20260905014303 85 97 4.0 6.0 0.00 0.06 0.06 71 1014.8
20260905013758 85 131 3.0 6.0 0.00 0.06 0.06 71 1014.8
20260905013254 85 115 3.0 3.0 0.00 0.06 0.06 71 1014.8
20260905012749 85 96 6.0 9.0 0.00 0.06 0.06 70 1014.8
20260905012245 85 120 3.0 4.0 0.00 0.06 0.06 71 1014.6
20260905011736 85 100 3.0 4.0 0.00 0.06 0.06 71 1014.5
20260905011226 85 113 4.0 4.0 0.00 0.06 0.06 72 1014.7
20260905010726 85 87 1.0 1.0 0.00 0.06 0.06 74 1014.5
20260905010221 85 62 3.0 3.0 0.00 0.06 0.06 74 1014.4
20260905005718 85 88 6.0 7.0 0.00 0.06 0.06 74 1014.4
20260905005213 85 135 2.0 2.0 0.00 0.06 0.06 73 1014.5
20260905004707 85 105 5.0 7.0 0.00 0.06 0.06 73 1014.3
20260905004203 85 112 1.0 2.0 0.00 0.06 0.06 74 1014.4
20260905003658 85 78 5.0 6.0 0.00 0.06 0.06 73 1014.2
20260905003154 86 85 5.0 7.0 0.00 0.06 0.06 72 1014.3
20260905002649 86 78 3.0 3.0 0.00 0.06 0.06 72 1014.2
20260905002148 86 45 1.0 1.0 0.00 0.06 0.06 72 1014.0
20260905001644 86 96 3.0 3.0 0.00 0.06 0.06 72 1013.9
20260905001143 86 83 3.0 4.0 0.00 0.06 0.06 72 1013.9
20260905000638 86 81 7.0 9.0 0.00 0.06 0.06 71 1014.2
20260905000134 86 51 3.0 4.0 0.00 0.06 0.06 71 1014.1
20260904235633 86 103 6.0 7.0 0.00 0.06 0.06 71 1014.1
20260904235133 86 62 5.0 8.0 0.00 0.06 0.06 72 1014.1
20260904234628 86 99 2.0 3.0 0.00 0.06 0.06 72 1014.0
20260904234124 86 101 3.0 9.0 0.00 0.06 0.06 72 1014.0
20260904233619 85 92 6.0 8.0 0.00 0.06 0.06 72 1014.1
20260904233115 84 111 5.0 7.0 0.00 0.06 0.06 73 1014.0
20260904232612 84 48 5.0 6.0 0.00 0.06 0.06 73 1013.9
20260904232108 83 88 5.0 7.0 0.00 0.06 0.06 75 1013.9
20260904231604 83 89 6.0 7.0 0.00 0.06 0.06 73 1014.1
20260904231104 83 92 8.0 10.0 0.00 0.06 0.06 73 1014.0
20260904230603 84 36 4.0 7.0 0.00 0.06 0.06 71 1014.0
20260904230054 84 105 4.0 7.0 0.00 0.06 0.06 69 1014.1
20260904225551 85 60 8.0 11.0 0.00 0.06 0.06 66 1014.0
20260904225046 86 88 8.0 15.0 0.00 0.06 0.06 67 1013.9
20260904224541 87 103 13.0 19.0 0.00 0.06 0.06 66 1014.0
20260904224041 90 107 4.0 6.0 0.00 0.06 0.06 60 1014.1
20260904223539 93 105 6.0 7.0 0.00 0.06 0.06 51 1014.0
20260904223036 93 176 5.0 7.0 0.00 0.06 0.06 50 1013.8
20260904222531 92 172 3.0 4.0 0.00 0.06 0.06 51 1014.1
20260904222026 92 163 7.0 9.0 0.00 0.06 0.06 51 1013.8
20260904221520 93 154 8.0 10.0 0.00 0.06 0.06 53 1013.7
20260904221015 92 204 9.0 11.0 0.00 0.06 0.06 53 1013.8
20260904220515 92 108 6.0 8.0 0.00 0.06 0.06 55 1013.9
20260904220011 93 133 9.0 9.0 0.00 0.06 0.06 54 1014.1
20260904215505 93 164 6.0 9.0 0.00 0.06 0.06 52 1013.9
20260904215001 92 154 6.0 7.0 0.00 0.06 0.06 52 1014.0
20260904214456 93 154 2.0 4.0 0.00 0.06 0.06 51 1013.9
20260904213951 93 196 4.0 6.0 0.00 0.06 0.06 50 1014.3
20260904213449 93 72 3.0 6.0 0.00 0.06 0.06 48 1014.4
20260904212946 93 167 7.0 9.0 0.00 0.06 0.06 49 1014.3
20260904212446 92 71 5.0 8.0 0.00 0.06 0.06 50 1014.3
20260904211940 93 171 7.0 8.0 0.00 0.06 0.06 49 1014.6
20260904211435 93 118 5.0 7.0 0.00 0.06 0.06 49 1014.4
20260904210931 92 179 4.0 4.0 0.00 0.06 0.06 51 1014.6
20260904210430 90 211 1.0 2.0 0.00 0.06 0.06 54 1014.4
20260904205926 91 145 6.0 7.0 0.00 0.06 0.06 53 1014.7
20260904205421 91 101 4.0 6.0 0.00 0.06 0.06 51 1014.7
20260904204919 91 152 4.0 6.0 0.00 0.06 0.06 55 1014.9
20260904204419 90 207 4.0 6.0 0.00 0.06 0.06 54 1014.9
20260904203915 90 192 5.0 6.0 0.00 0.06 0.06 55 1015.1
20260904203411 91 144 7.0 9.0 0.00 0.06 0.06 54 1015.0
20260904202906 91 202 4.0 4.0 0.00 0.06 0.06 51 1015.3
20260904202403 90 191 7.0 8.0 0.00 0.06 0.06 53 1015.3
20260904201858 90 144 2.0 2.0 0.00 0.06 0.06 53 1015.3
20260904201354 91 197 4.0 4.0 0.00 0.06 0.06 54 1015.1
20260904200848 91 111 4.0 6.0 0.00 0.06 0.06 56 1015.3
20260904200347 89 170 2.0 2.0 0.00 0.06 0.06 57 1015.4
20260904195841 90 135 10.0 11.0 0.00 0.06 0.06 57 1015.5
20260904195340 91 136 9.0 9.0 0.00 0.06 0.06 56 1015.5
20260904194835 90 96 3.0 4.0 0.00 0.06 0.06 53 1015.5
20260904194329 89 210 5.0 7.0 0.00 0.06 0.06 56 1015.5
20260904193824 89 174 6.0 8.0 0.00 0.06 0.06 55 1015.7
20260904193320 89 159 7.0 9.0 0.00 0.06 0.06 53 1015.8
20260904192815 88 251 6.0 7.0 0.00 0.06 0.06 56 1015.7
20260904192310 88 209 7.0 8.0 0.00 0.06 0.06 58 1015.9
20260904191807 89 148 7.0 8.0 0.00 0.06 0.06 56 1015.8
20260904191303 87 151 4.0 6.0 0.00 0.06 0.06 58 1016.0
20260904190759 88 184 11.0 14.0 0.00 0.06 0.06 56 1016.0
20260904190255 87 148 7.0 10.0 0.00 0.06 0.06 57 1016.2
20260904185751 87 101 4.0 6.0 0.00 0.06 0.06 55 1016.4
20260904185246 87 145 5.0 7.0 0.00 0.06 0.06 60 1016.3
20260904184745 87 176 8.0 9.0 0.00 0.06 0.06 62 1016.4
20260904184241 86 209 9.0 10.0 0.00 0.06 0.06 65 1016.5
20260904183736 86 197 7.0 9.0 0.00 0.06 0.06 68 1016.4
20260904183231 86 192 8.0 10.0 0.00 0.06 0.06 69 1016.5
20260904182726 86 228 6.0 7.0 0.00 0.06 0.06 70 1016.6
20260904182221 86 196 10.0 13.0 0.00 0.06 0.06 69 1016.5
20260904181717 86 215 4.0 6.0 0.00 0.06 0.06 68 1016.6
20260904181216 87 188 11.0 13.0 0.00 0.06 0.06 67 1016.6
20260904180712 87 153 6.0 8.0 0.00 0.06 0.06 70 1016.6
20260904180207 86 172 6.0 8.0 0.00 0.06 0.06 71 1016.8
20260904175706 85 132 2.0 3.0 0.00 0.06 0.06 73 1016.8
20260904175204 85 126 2.0 3.0 0.00 0.06 0.06 74 1016.9
20260904174659 84 136 6.0 7.0 0.00 0.06 0.06 75 1016.8
20260904174156 84 171 4.0 4.0 0.00 0.06 0.06 76 1016.9
20260904173651 85 134 4.0 4.0 0.00 0.06 0.06 76 1017.0
20260904173146 84 72 5.0 7.0 0.00 0.06 0.06 77 1016.9
20260904172642 85 148 5.0 7.0 0.00 0.06 0.06 77 1016.8
20260904172141 85 204 2.0 4.0 0.00 0.06 0.06 77 1017.0
20260904171637 85 134 4.0 4.0 0.00 0.06 0.06 76 1016.7
20260904171132 84 121 5.0 6.0 0.00 0.06 0.06 76 1017.0
20260904170627 84 208 4.0 6.0 0.00 0.06 0.06 76 1017.0
20260904170123 84 162 4.0 4.0 0.00 0.06 0.06 77 1017.1
20260904165622 84 129 4.0 4.0 0.00 0.06 0.06 77 1017.1
20260904165116 84 138 3.0 3.0 0.00 0.06 0.06 77 1017.2
20260904164616 84 130 3.0 3.0 0.00 0.06 0.06 77 1017.1
20260904164106 84 155 4.0 4.0 0.00 0.06 0.06 78 1017.0
20260904163601 84 203 2.0 3.0 0.00 0.06 0.06 78 1017.0
20260904163056 84 190 4.0 4.0 0.00 0.06 0.06 78 1017.1
20260904162556 84 213 5.0 7.0 0.00 0.06 0.06 79 1017.2
20260904162052 83 167 1.0 2.0 0.00 0.06 0.06 81 1017.0
20260904161546 83 257 5.0 6.0 0.00 0.06 0.06 80 1017.0
20260904161042 83 188 6.0 7.0 0.00 0.06 0.06 81 1016.8
20260904160537 82 226 4.0 6.0 0.00 0.06 0.06 82 1017.1
20260904160033 82 198 4.0 4.0 0.00 0.06 0.06 82 1016.8
20260904155532 82 181 4.0 4.0 0.00 0.06 0.06 83 1017.0
20260904155026 82 206 5.0 7.0 0.00 0.06 0.06 83 1016.8
20260904154520 82 234 4.0 4.0 0.00 0.06 0.06 83 1016.8
20260904154015 82 234 5.0 7.0 0.00 0.06 0.06 84 1016.7
20260904153515 82 206 7.0 8.0 0.00 0.06 0.06 84 1016.6
20260904153012 82 210 3.0 6.0 0.00 0.06 0.06 84 1016.7
20260904152507 82 181 5.0 7.0 0.00 0.06 0.06 84 1016.6
20260904152002 82 243 5.0 7.0 0.00 0.06 0.06 85 1016.5
20260904151456 82 232 4.0 6.0 0.00 0.06 0.06 85 1016.5
20260904150951 82 165 6.0 7.0 0.00 0.06 0.06 86 1016.4
20260904150446 82 212 6.0 8.0 0.00 0.06 0.06 87 1016.5
20260904145944 82 205 10.0 11.0 0.00 0.06 0.06 86 1016.2
20260904145440 81 228 8.0 11.0 0.00 0.06 0.06 88 1016.3
20260904144935 81 191 3.0 4.0 0.00 0.06 0.06 88 1016.4
20260904144431 80 225 2.0 2.0 0.00 0.06 0.06 90 1016.6
20260904143927 80 191 1.0 2.0 0.00 0.06 0.06 91 1016.3
20260904143423 80 205 7.0 8.0 0.00 0.06 0.06 91 1016.4
20260904142920 80 237 3.0 3.0 0.00 0.06 0.06 92 1016.5
20260904142415 80 203 3.0 3.0 0.00 0.06 0.06 92 1016.4
20260904141909 80 228 4.0 4.0 0.00 0.06 0.06 92 1016.4
20260904141404 80 223 2.0 2.0 0.00 0.06 0.06 93 1016.5
20260904140901 79 233 3.0 4.0 0.00 0.06 0.06 93 1016.4
20260904140355 79 207 3.0 4.0 0.00 0.06 0.06 94 1016.4
20260904135854 79 270 4.0 6.0 0.00 0.06 0.06 95 1016.2
20260904135349 79 274 2.0 3.0 0.00 0.06 0.06 96 1016.3
20260904134846 78 218 4.0 4.0 0.00 0.06 0.06 96 1016.3
20260904134345 78 193 2.0 2.0 0.00 0.06 0.06 96 1016.3
20260904133845 78 234 0.0 0.0 0.07 0.06 0.06 96 1016.2
20260904133340 78 203 1.0 1.0 0.24 0.06 0.06 96 1016.1
20260904132835 79 207 4.0 6.0 0.28 0.05 0.05 95 1016.0
20260904132330 79 211 7.0 9.0 0.17 0.03 0.03 94 1016.1
20260904131830 79 185 4.0 6.0 0.00 0.00 0.00 94 1016.1
20260904131325 79 213 6.0 8.0 0.00 0.00 0.00 93 1016.1
20260904130820 79 199 3.0 3.0 0.00 0.00 0.00 94 1016.3
20260904130319 79 205 3.0 3.0 0.00 0.00 0.00 94 1016.1
20260904125815 79 214 4.0 4.0 0.00 0.00 0.00 94 1016.2
20260904125311 79 214 3.0 3.0 0.00 0.00 0.00 94 1016.3
20260904124810 79 205 5.0 6.0 0.00 0.00 0.00 94 1016.2
20260904124307 79 179 3.0 4.0 0.00 0.00 0.00 93 1016.4
20260904123802 79 156 3.0 3.0 0.00 0.00 0.00 93 1016.2
20260904123257 79 124 1.0 2.0 0.00 0.00 0.00 93 1016.2
20260904122752 79 189 2.0 2.0 0.00 0.00 0.00 92 1016.2
20260904122251 79 160 3.0 3.0 0.00 0.00 0.00 92 1016.2
20260904121747 79 184 2.0 3.0 0.00 0.00 0.00 92 1016.0
20260904121243 79 157 4.0 6.0 0.00 0.00 0.00 92 1015.8
20260904120739 79 133 3.0 4.0 0.00 0.00 0.00 92 1015.8
20260904120235 79 104 2.0 3.0 0.00 0.00 0.00 91 1015.9
20260904115735 79 158 2.0 3.0 0.00 0.00 0.00 91 1015.8
20260904115229 79 183 2.0 3.0 0.00 0.00 0.00 91 1015.9
20260904114724 79 129 4.0 7.0 0.00 0.00 0.00 91 1015.6
20260904114219 79 143 2.0 3.0 0.00 0.00 0.00 91 1015.5
20260904113714 79 94 6.0 7.0 0.00 0.00 0.00 91 1015.6
20260904113213 79 154 4.0 7.0 0.00 0.00 0.00 91 1015.4
20260904112709 79 112 3.0 4.0 0.00 0.00 0.00 91 1015.3
20260904112204 79 73 3.0 3.0 0.00 0.00 0.00 91 1015.4
20260904111659 79 69 5.0 7.0 0.00 0.00 0.00 91 1015.3
20260904111154 79 113 4.0 6.0 0.00 0.00 0.00 90 1015.4
20260904110649 79 89 3.0 3.0 0.00 0.00 0.00 90 1015.2
20260904110143 79 111 4.0 6.0 0.00 0.00 0.00 90 1015.0
20260904105638 79 144 4.0 6.0 0.00 0.00 0.00 90 1015.3
20260904105133 79 117 3.0 4.0 0.00 0.00 0.00 90 1015.2
20260904104629 79 84 5.0 7.0 0.00 0.00 0.00 90 1015.1
20260904104124 79 91 2.0 4.0 0.00 0.00 0.00 89 1015.0
20260904103621 80 143 4.0 6.0 0.00 0.00 0.00 89 1015.0
20260904103116 80 135 6.0 7.0 0.00 0.00 0.00 89 1015.0
20260904102612 80 126 3.0 3.0 0.00 0.00 0.00 89 1015.2
20260904102107 80 119 3.0 3.0 0.00 0.00 0.00 89 1015.0
20260904101603 80 171 4.0 4.0 0.00 0.00 0.00 89 1015.0
20260904101059 80 200 4.0 7.0 0.00 0.00 0.00 88 1014.9
20260904100554 80 168 7.0 8.0 0.00 0.00 0.00 88 1014.9
20260904100049 80 91 3.0 4.0 0.00 0.00 0.00 88 1014.7
20260904095544 80 136 3.0 4.0 0.00 0.00 0.00 87 1014.9
20260904095039 80 145 4.0 4.0 0.00 0.00 0.00 87 1014.8
20260904094534 80 124 4.0 7.0 0.00 0.00 0.00 87 1014.8
20260904094029 80 162 4.0 4.0 0.00 0.00 0.00 86 1014.7
20260904093526 80 147 2.0 2.0 0.00 0.00 0.00 86 1014.7
20260904093026 80 180 5.0 6.0 0.00 0.00 0.00 86 1014.5
20260904092521 81 201 3.0 3.0 0.00 0.00 0.00 86 1014.7
20260904092018 81 178 5.0 6.0 0.00 0.00 0.00 86 1014.6
20260904091514 81 146 4.0 6.0 0.00 0.00 0.00 86 1014.8
20260904091013 81 204 6.0 9.0 0.00 0.00 0.00 86 1014.9
20260904090508 81 156 4.0 6.0 0.00 0.00 0.00 86 1014.8
20260904090004 81 170 5.0 6.0 0.00 0.00 0.00 86 1014.8
20260904085459 81 132 4.0 4.0 0.00 0.00 0.00 86 1014.8
20260904084958 81 174 8.0 10.0 0.00 0.00 0.00 86 1014.9
20260904084454 81 114 5.0 8.0 0.00 0.00 0.00 86 1014.8
20260904083950 81 177 7.0 8.0 0.00 0.00 0.00 86 1014.7
20260904083446 81 199 4.0 4.0 0.00 0.00 0.00 86 1014.8
20260904082942 81 168 5.0 8.0 0.00 0.00 0.00 86 1014.7
20260904082437 81 183 5.0 7.0 0.00 0.00 0.00 86 1014.7
20260904081931 81 176 4.0 4.0 0.00 0.00 0.00 86 1014.7
20260904081427 81 174 11.0 13.0 0.00 0.00 0.00 86 1014.7
20260904080923 81 146 9.0 10.0 0.00 0.00 0.00 86 1014.8
20260904080418 81 129 9.0 10.0 0.00 0.00 0.00 86 1014.8
20260904075914 81 174 2.0 2.0 0.00 0.00 0.00 85 1014.6
20260904075410 81 141 4.0 4.0 0.00 0.00 0.00 85 1014.7
20260904074908 81 130 4.0 4.0 0.00 0.00 0.00 85 1014.6
20260904074403 81 184 7.0 9.0 0.00 0.00 0.00 85 1014.8
20260904073859 81 174 12.0 14.0 0.00 0.00 0.00 85 1014.6
20260904073355 81 177 6.0 9.0 0.00 0.00 0.00 85 1014.7
20260904072850 81 165 5.0 6.0 0.00 0.00 0.00 85 1014.6
20260904072345 81 134 7.0 10.0 0.00 0.00 0.00 85 1014.9
20260904071841 81 181 6.0 8.0 0.00 0.00 0.00 84 1014.7
20260904071335 81 160 6.0 9.0 0.00 0.00 0.00 84 1015.0
20260904070825 81 163 6.0 7.0 0.00 0.00 0.00 84 1015.1
20260904070323 81 167 5.0 8.0 0.00 0.00 0.00 84 1015.1
20260904065818 81 133 4.0 6.0 0.00 0.00 0.00 84 1015.3
20260904065314 81 151 4.0 6.0 0.00 0.00 0.00 84 1015.3
20260904064809 81 133 6.0 8.0 0.00 0.00 0.00 84 1015.2
20260904064305 81 169 6.0 9.0 0.00 0.00 0.00 84 1015.1
20260904063801 81 166 4.0 6.0 0.00 0.00 0.00 84 1015.2
20260904063257 81 159 6.0 7.0 0.00 0.00 0.00 84 1014.9
20260904062752 81 192 2.0 2.0 0.00 0.00 0.00 84 1015.1
20260904062248 81 192 6.0 8.0 0.00 0.00 0.00 84 1015.0
20260904061743 81 105 3.0 3.0 0.00 0.00 0.00 83 1015.0
20260904061239 81 123 6.0 8.0 0.00 0.00 0.00 84 1015.1
20260904060736 81 171 4.0 4.0 0.00 0.00 0.00 83 1014.9
20260904060231 81 135 2.0 3.0 0.00 0.00 0.00 83 1015.1
20260904055726 81 131 9.0 9.0 0.00 0.00 0.00 84 1015.1
20260904055220 80 143 6.0 8.0 0.00 0.00 0.00 84 1015.4
20260904054716 80 118 5.0 7.0 0.00 0.00 0.00 83 1015.2
20260904054212 81 125 8.0 9.0 0.00 0.00 0.00 83 1015.1
20260904053707 81 115 2.0 2.0 0.00 0.00 0.00 83 1015.1
20260904053202 81 84 7.0 9.0 0.00 0.00 0.00 83 1015.2
20260904052658 80 120 6.0 8.0 0.00 0.00 0.00 83 1015.2
20260904052154 80 131 5.0 7.0 0.00 0.00 0.00 83 1015.0
20260904051650 80 154 7.0 9.0 0.00 0.00 0.00 83 1014.9
20260904051145 80 140 6.0 8.0 0.00 0.00 0.00 83 1014.9
20260904050640 80 145 8.0 10.0 0.00 0.00 0.00 83 1014.9
20260904050136 80 130 5.0 10.0 0.00 0.00 0.00 83 1014.9
20260904045630 80 138 6.0 7.0 0.00 0.00 0.00 83 1015.0
20260904045125 80 82 4.0 6.0 0.00 0.00 0.00 83 1015.0
20260904044621 80 159 6.0 10.0 0.00 0.00 0.00 83 1015.1
20260904044117 80 119 6.0 7.0 0.00 0.00 0.00 83 1014.9
20260904043614 80 108 9.0 10.0 0.00 0.00 0.00 83 1015.0
20260904043109 80 78 3.0 4.0 0.00 0.00 0.00 82 1015.0
20260904042605 81 149 5.0 8.0 0.00 0.00 0.00 82 1015.0
20260904042100 81 139 4.0 7.0 0.00 0.00 0.00 82 1015.0
20260904041556 81 126 5.0 6.0 0.00 0.00 0.00 82 1015.0
20260904041052 81 131 4.0 4.0 0.00 0.00 0.00 82 1015.0
20260904040552 81 109 4.0 4.0 0.00 0.00 0.00 82 1014.9
20260904040049 81 94 7.0 11.0 0.00 0.00 0.00 81 1014.9
20260904035549 81 166 3.0 6.0 0.00 0.00 0.00 81 1014.9
20260904035043 81 101 5.0 7.0 0.00 0.00 0.00 81 1014.7
20260904034538 81 118 6.0 8.0 0.00 0.00 0.00 81 1015.0
20260904034033 81 121 5.0 6.0 0.00 0.00 0.00 80 1014.7
20260904033529 81 113 6.0 9.0 0.00 0.00 0.00 80 1014.9
20260904033027 81 127 6.0 8.0 0.00 0.00 0.00 79 1014.9
20260904032522 81 125 7.0 9.0 0.00 0.00 0.00 79 1014.6